When you browse on this site, cookies collect data to enhance your experience and personalize the content and advertising you see.
Visit our Privacy Policy to learn more. By continuing to use the site, you agree to this use of cookies and data.
  • en Suisse
  • Liste des pays
  • À 7 jours
  • Température de l'eau
  • Carte satellitaire
  • Carte météo
  • Widgets météo
  • user-avatar
    Se connecter

    Météo par heure à Korçё

    Ce jour, 23 Mars, Samedi

    Heure Température Précipitation Vent Pression Humidité
    00:00 +5°C° 0 mm 2 m/s 669 mmHg 77%
    01:00 +4°C° 0 mm 2 m/s 669 mmHg 78%
    02:00 +4°C° 0 mm 2 m/s 669 mmHg 78%
    03:00 +4°C° 0 mm 2 m/s 669 mmHg 78%
    04:00 +3°C° 0 mm 2 m/s 669 mmHg 79%
    05:00 +4°C° 0 mm 2 m/s 669 mmHg 76%
    06:00 +5°C° 0 mm 2 m/s 669 mmHg 73%
    07:00 +5°C° 0 mm 2 m/s 669 mmHg 70%
    08:00 +7°C° 0 mm 2 m/s 670 mmHg 62%
    09:00 +9°C° 0 mm 2 m/s 670 mmHg 54%
    10:00 +12°C° 0 mm 2 m/s 670 mmHg 46%
    11:00 +12°C° 0 mm 3 m/s 670 mmHg 44%
    12:00 +13°C° 0 mm 3 m/s 670 mmHg 42%
    13:00 +14°C° 0 mm 3 m/s 670 mmHg 39%
    14:00 +14°C° 0 mm 3 m/s 670 mmHg 40%
    15:00 +15°C° 0 mm 2 m/s 670 mmHg 41%
    16:00 +15°C° 0 mm 2 m/s 669 mmHg 41%
    17:00 +13°C° 0 mm 2 m/s 669 mmHg 47%
    18:00 +10°C° 0 mm 2 m/s 669 mmHg 53%
    19:00 +8°C° 0 mm 2 m/s 668 mmHg 59%
    20:00 +8°C° 0 mm 2 m/s 668 mmHg 61%
    21:00 +7°C° 0 mm 2 m/s 668 mmHg 62%
    22:00 +7°C° 0 mm 2 m/s 668 mmHg 63%
    23:00 +6°C° 0 mm 2 m/s 668 mmHg 65%

    Demain, 24 Mars, Dimanche

    Heure Température Précipitation Vent Pression Humidité
    00:00 +6°C° 0 mm 2 m/s 668 mmHg 66%
    01:00 +6°C° 0 mm 2 m/s 668 mmHg 67%
    02:00 +5°C° 0 mm 2 m/s 668 mmHg 69%
    03:00 +5°C° 0 mm 2 m/s 668 mmHg 72%
    04:00 +5°C° 0 mm 2 m/s 668 mmHg 74%
    05:00 +5°C° 0 mm 2 m/s 668 mmHg 74%
    06:00 +6°C° 0 mm 2 m/s 668 mmHg 74%
    07:00 +6°C° 0 mm 2 m/s 669 mmHg 74%
    08:00 +8°C° 0 mm 2 m/s 669 mmHg 65%
    09:00 +10°C° 0 mm 2 m/s 670 mmHg 57%
    10:00 +13°C° 0 mm 2 m/s 670 mmHg 48%
    11:00 +14°C° 0 mm 2 m/s 670 mmHg 44%
    12:00 +15°C° 0 mm 2 m/s 670 mmHg 40%
    13:00 +16°C° 0 mm 2 m/s 670 mmHg 36%
    14:00 +16°C° 0 mm 2 m/s 670 mmHg 37%
    15:00 +15°C° 0 mm 2 m/s 670 mmHg 39%
    16:00 +14°C° 0 mm 3 m/s 669 mmHg 40%
    17:00 +13°C° 0 mm 2 m/s 669 mmHg 48%
    18:00 +10°C° 0 mm 2 m/s 668 mmHg 56%
    19:00 +8°C° 0 mm 2 m/s 668 mmHg 64%
    20:00 +9°C° 0 mm 1 m/s 668 mmHg 64%
    21:00 +8°C° 0 mm 1 m/s 668 mmHg 65%
    22:00 +8°C° 0 mm 1 m/s 668 mmHg 65%
    23:00 +7°C° 0 mm 0 m/s 668 mmHg 65%

    Après-demain, 25 Mars, Lundi

    Heure Température Précipitation Vent Pression Humidité
    00:00 +6°C° 0 mm 0 m/s 667 mmHg 65%
    01:00 +6°C° 0 mm 0 m/s 667 mmHg 65%
    02:00 +6°C° 0 mm 0 m/s 667 mmHg 65%
    03:00 +5°C° 0 mm 0 m/s 666 mmHg 65%
    04:00 +5°C° 0 mm 0 m/s 666 mmHg 66%
    05:00 +6°C° 0 mm 0 m/s 666 mmHg 63%
    06:00 +7°C° 0 mm 0 m/s 667 mmHg 61%
    07:00 +8°C° 0 mm 0 m/s 667 mmHg 59%
    08:00 +10°C° 0 mm 1 m/s 667 mmHg 54%
    09:00 +12°C° 0 mm 1 m/s 667 mmHg 48%
    10:00 +14°C° 0 mm 2 m/s 668 mmHg 43%
    11:00 +14°C° 0 mm 2 m/s 667 mmHg 41%
    12:00 +15°C° 0 mm 2 m/s 667 mmHg 39%
    13:00 +14°C° 0 mm 3 m/s 667 mmHg 37%
    14:00 +14°C° 0 mm 3 m/s 666 mmHg 40%
    15:00 +13°C° 0 mm 3 m/s 666 mmHg 43%
    16:00 +13°C° 0 mm 3 m/s 665 mmHg 46%
    17:00 +11°C° 0 mm 3 m/s 665 mmHg 56%
    18:00 +9°C° 0 mm 2 m/s 664 mmHg 66%
    19:00 +8°C° 0 mm 1 m/s 664 mmHg 75%
    20:00 +7°C° 0 mm 1 m/s 663 mmHg 77%
    21:00 +7°C° 0 mm 1 m/s 663 mmHg 79%
    22:00 +5°C° 0 mm 0 m/s 663 mmHg 81%
    23:00 +5°C° 0 mm 0 m/s 663 mmHg 77%

    26 Mars, Mardi

    Heure Température Précipitation Vent Pression Humidité
    00:00 +4°C° 0 mm 0 m/s 663 mmHg 73%
    01:00 +4°C° 0 mm 0 m/s 662 mmHg 70%
    02:00 +4°C° 0 mm 0 m/s 662 mmHg 68%
    03:00 +5°C° 0 mm 1 m/s 662 mmHg 66%
    04:00 +5°C° 0 mm 1 m/s 662 mmHg 64%
    05:00 +5°C° 0 mm 1 m/s 662 mmHg 63%
    06:00 +6°C° 0 mm 1 m/s 663 mmHg 61%
    07:00 +7°C° 0 mm 1 m/s 663 mmHg 60%
    08:00 +8°C° 0 mm 1 m/s 664 mmHg 54%
    09:00 +10°C° 0 mm 1 m/s 664 mmHg 47%
    10:00 +12°C° 0 mm 1 m/s 665 mmHg 41%
    11:00 +12°C° 0 mm 2 m/s 665 mmHg 41%
    12:00 +13°C° 0 mm 2 m/s 665 mmHg 40%
    13:00 +12°C° 0 mm 3 m/s 665 mmHg 39%
    14:00 +11°C° 0.3 mm 3 m/s 664 mmHg 47%
    15:00 +10°C° 0.3 mm 3 m/s 664 mmHg 55%
    16:00 +9°C° 0.3 mm 3 m/s 664 mmHg 63%
    17:00 +8°C° 0.6 mm 2 m/s 664 mmHg 70%
    18:00 +6°C° 0.6 mm 2 m/s 664 mmHg 77%
    19:00 +5°C° 0.6 mm 2 m/s 664 mmHg 83%
    20:00 +4°C° 0.5 mm 2 m/s 664 mmHg 84%
    21:00 +4°C° 0.5 mm 2 m/s 664 mmHg 84%
    22:00 +2°C° 0.5 mm 3 m/s 664 mmHg 84%
    23:00 +1°C° 0.3 mm 3 m/s 664 mmHg 83%

    27 Mars, Mercredi

    Heure Température Précipitation Vent Pression Humidité
    00:00 +1°C° 0.3 mm 3 m/s 664 mmHg 83%
    01:00 +1°C° 0.3 mm 3 m/s 664 mmHg 82%
    02:00 0°C° 0.2 mm 3 m/s 664 mmHg 83%
    03:00 0°C° 0.2 mm 3 m/s 664 mmHg 83%
    04:00 0°C° 0.2 mm 3 m/s 663 mmHg 83%
    05:00 0°C° 0.6 mm 3 m/s 664 mmHg 84%
    06:00 -1°C° 0.6 mm 3 m/s 664 mmHg 84%
    07:00 -1°C° 0.6 mm 3 m/s 664 mmHg 85%
    08:00 0°C° 0.2 mm 3 m/s 665 mmHg 82%
    09:00 +1°C° 0.2 mm 3 m/s 666 mmHg 78%
    10:00 +2°C° 0.2 mm 3 m/s 667 mmHg 75%
    11:00 +3°C° 0 mm 3 m/s 667 mmHg 72%
    12:00 +4°C° 0 mm 3 m/s 667 mmHg 70%
    13:00 +4°C° 0 mm 3 m/s 668 mmHg 67%
    14:00 +4°C° 0 mm 3 m/s 668 mmHg 66%
    15:00 +4°C° 0 mm 3 m/s 668 mmHg 66%
    16:00 +5°C° 0 mm 2 m/s 668 mmHg 66%
    17:00 +4°C° 0 mm 2 m/s 668 mmHg 70%
    18:00 +3°C° 0 mm 2 m/s 668 mmHg 73%
    19:00 +2°C° 0 mm 2 m/s 668 mmHg 77%
    20:00 +1°C° 0 mm 2 m/s 668 mmHg 78%
    21:00 +1°C° 0 mm 2 m/s 668 mmHg 78%
    22:00 -1°C° 0 mm 2 m/s 668 mmHg 78%
    23:00 -1°C° 0 mm 2 m/s 668 mmHg 78%

    28 Mars, Jeudi

    Heure Température Précipitation Vent Pression Humidité
    00:00 -2°C° 0 mm 2 m/s 668 mmHg 77%
    01:00 -2°C° 0 mm 2 m/s 668 mmHg 76%
    02:00 -2°C° 0 mm 2 m/s 668 mmHg 75%
    03:00 -3°C° 0 mm 2 m/s 668 mmHg 74%
    04:00 -3°C° 0 mm 2 m/s 668 mmHg 73%
    05:00 -2°C° 0 mm 2 m/s 668 mmHg 70%
    06:00 -1°C° 0 mm 2 m/s 669 mmHg 67%
    07:00 -1°C° 0 mm 2 m/s 669 mmHg 64%
    08:00 +2°C° 0 mm 2 m/s 670 mmHg 60%
    09:00 +4°C° 0 mm 2 m/s 670 mmHg 55%
    10:00 +5°C° 0 mm 2 m/s 671 mmHg 50%
    11:00 +6°C° 0 mm 2 m/s 671 mmHg 49%
    12:00 +6°C° 0 mm 2 m/s 671 mmHg 47%
    13:00 +7°C° 0 mm 2 m/s 671 mmHg 46%
    14:00 +7°C° 0 mm 2 m/s 670 mmHg 47%
    15:00 +6°C° 0 mm 2 m/s 670 mmHg 49%
    16:00 +7°C° 0 mm 1 m/s 670 mmHg 50%
    17:00 +5°C° 0 mm 2 m/s 670 mmHg 55%
    18:00 +3°C° 0 mm 2 m/s 670 mmHg 60%
    19:00 +2°C° 0 mm 2 m/s 669 mmHg 66%
    20:00 +2°C° 0 mm 2 m/s 670 mmHg 66%
    21:00 +1°C° 0 mm 2 m/s 670 mmHg 67%
    22:00 -1°C° 0 mm 2 m/s 670 mmHg 68%
    23:00 -1°C° 0 mm 2 m/s 670 mmHg 68%
    Voir plus